Fremont, MI

9:28 AM EST on November 13, 2019 (GMT -0500)
Fremont

Weather History for KFFX - May, 2019

Change the Weather History Date:

Saturday, May 18, 2019

  Actual Average (KMKG) Record (KMKG)
Temperature  
Mean Temperature 62 °F -  
Max Temperature 74 °F 68 °F 86 °F (1998)
Min Temperature 50 °F 46 °F 30 °F (1973)
Degree Days  
Heating Degree Days 3    
Growing Degree Days 12 (Base 50)    
Moisture  
Dew Point 52 °F    
Average Humidity 76    
Maximum Humidity 100    
Minimum Humidity 44    
Precipitation  
Precipitation 0.00 in - - ()
Sea Level Pressure  
Sea Level Pressure 29.84 in    
Wind  
Wind Speed 6 mph ()    
Max Wind Speed 13 mph    
Max Gust Speed 18 mph    
Visibility 9.6 miles    
Events Rain    
Averages and records for this station are not official NWS values.
T = Trace of Precipitation, MM = Missing Value Source: Averaged Metar Reports

Daily Weather History Graph

Daily Weather History Graph

Search for Another Location

Airport or City:

Astronomy

May. 18, 2019 Rise Set
Actual Time 6:16 AM EDT 9:04 PM EDT
Civil Twilight 5:43 AM EDT 9:38 PM EDT
Nautical Twilight 5:01 AM EDT 10:20 PM EDT
Astronomical Twilight 4:12 AM EDT 11:09 PM EDT
Moon 8:57 PM EDT (5/18) 6:26 AM EDT (5/18)
Length of Visible Light 15h 54m
Length of Day
14h 48m
Full, 100% of the Moon is Illuminated
May 18
Full
May 18
Full
May 26
Last Quarter
Jun 3
New
Jun 10
First Quarter

Hourly Weather History & Observations

Time (EDT) Temp. Dew Point Humidity Pressure Visibility Wind Dir Wind Speed Gust Speed Precip Events Conditions
12:15 AM 56.8 °F 35.1 °F 44% 29.94 in 10.0 mi NE 5.8 mph - N/A   Overcast
12:36 AM 56.3 °F 34.5 °F 44% 29.94 in 10.0 mi NE 8.1 mph - N/A   Overcast
12:55 AM 55.8 °F 35.1 °F 46% 29.94 in 10.0 mi ENE 8.1 mph - N/A   Scattered Clouds
1:15 AM 55.6 °F 35.8 °F 47% 29.93 in 10.0 mi ENE 9.2 mph - N/A   Mostly Cloudy
1:35 AM 55.2 °F 37.8 °F 52% 29.93 in 10.0 mi East 8.1 mph - N/A   Overcast
1:56 AM 55.4 °F 38.5 °F 53% 29.92 in 10.0 mi East 8.1 mph - N/A   Overcast
2:16 AM 54.9 °F 40.1 °F 58% 29.91 in 10.0 mi East 5.8 mph - N/A   Overcast
2:35 AM 54.7 °F 41.0 °F 60% 29.91 in 10.0 mi East 6.9 mph - N/A   Overcast
2:55 AM 54.5 °F 41.5 °F 62% 29.91 in 10.0 mi East 5.8 mph - N/A   Overcast
3:16 AM 54.5 °F 41.2 °F 61% 29.92 in 10.0 mi East 3.5 mph - N/A   Overcast
3:36 AM 53.8 °F 41.5 °F 63% 29.92 in 10.0 mi East 5.8 mph - N/A Rain Rain
3:55 AM 52.2 °F 42.8 °F 70% 29.92 in 10.0 mi East 5.8 mph - N/A   Drizzle
4:15 AM 51.8 °F 43.7 °F 74% 29.93 in 10.0 mi East 6.9 mph - N/A Rain Rain
4:36 AM 50.9 °F 45.0 °F 80% 29.93 in 10.0 mi East 4.6 mph - N/A Rain Light Rain
4:55 AM 50.0 °F 46.0 °F 86% 29.92 in 10.0 mi East 6.9 mph - N/A Rain Rain
5:15 AM 50.0 °F 48.0 °F 93% 29.92 in 10.0 mi East 4.6 mph - N/A Rain Rain
5:36 AM 50.0 °F 48.9 °F 96% 29.92 in 10.0 mi East 4.6 mph - N/A Rain Light Rain
5:56 AM 50.2 °F 49.1 °F 96% 29.92 in 10.0 mi East 5.8 mph - N/A   Light Drizzle
6:15 AM 50.4 °F 49.5 °F 97% 29.91 in 10.0 mi East 4.6 mph - N/A   Overcast
6:36 AM 50.7 °F 50.2 °F 98% 29.90 in 10.0 mi ESE 5.8 mph - N/A   Overcast
6:56 AM 51.1 °F 50.9 °F 99% 29.90 in 10.0 mi East 6.9 mph - N/A   Overcast
7:15 AM 51.8 °F 51.8 °F 100% 29.90 in 7.0 mi East 8.1 mph - N/A   Overcast
7:35 AM 52.9 °F 52.7 °F 99% 29.90 in 5.0 mi ESE 8.1 mph - N/A   Overcast
7:56 AM 53.6 °F 53.6 °F 100% 29.90 in 5.0 mi East 6.9 mph - N/A   Overcast
8:15 AM 54.5 °F 54.3 °F 99% 29.90 in 5.0 mi ESE 6.9 mph - N/A   Overcast
8:35 AM 55.4 °F 54.9 °F 98% 29.90 in 7.0 mi ESE 6.9 mph - N/A   Overcast
8:56 AM 55.6 °F 54.9 °F 97% 29.89 in 7.0 mi ESE 10.4 mph - N/A   Overcast
9:16 AM 55.8 °F 54.9 °F 97% 29.89 in 10.0 mi ESE 9.2 mph - N/A   Overcast
9:35 AM 55.4 °F 54.9 °F 98% 29.89 in 7.0 mi ESE 9.2 mph - N/A   Overcast
10:16 AM 55.0 °F 54.0 °F 96% 29.88 in 10.0 mi ESE 11.5 mph - N/A   Overcast
10:55 AM 54.7 °F 52.9 °F 94% 29.86 in 10.0 mi ESE 12.7 mph 17.3 mph N/A   Overcast
11:16 AM 55.0 °F 52.7 °F 92% 29.87 in 10.0 mi ESE 9.2 mph - N/A   Overcast
11:35 AM 55.0 °F 52.2 °F 90% 29.86 in 10.0 mi ESE 8.1 mph 16.1 mph N/A   Overcast
11:55 AM 55.6 °F 51.4 °F 86% 29.87 in 10.0 mi East 11.5 mph - N/A   Overcast
12:16 PM 56.5 °F 52.2 °F 85% 29.87 in 10.0 mi SE 9.2 mph - N/A   Overcast
12:35 PM 58.1 °F 52.5 °F 82% 29.88 in 10.0 mi ESE 9.2 mph - N/A   Overcast
12:55 PM 58.5 °F 52.7 °F 81% 29.87 in 10.0 mi ESE 8.1 mph - N/A   Overcast
1:15 PM 58.8 °F 53.6 °F 83% 29.86 in 10.0 mi ESE 10.4 mph - N/A   Overcast
1:36 PM 61.9 °F 54.3 °F 76% 29.85 in 10.0 mi ESE 8.1 mph 16.1 mph N/A   Overcast
1:55 PM 62.2 °F 54.7 °F 76% 29.85 in 10.0 mi ESE 6.9 mph - N/A   Overcast
2:16 PM 64.4 °F 55.6 °F 73% 29.84 in 10.0 mi SSE 8.1 mph - N/A   Mostly Cloudy
2:36 PM 64.9 °F 55.9 °F 73% 29.82 in 10.0 mi ESE 9.2 mph - N/A   Scattered Clouds
2:55 PM 66.0 °F 57.0 °F 73% 29.81 in 10.0 mi SE 5.8 mph - N/A   Clear
3:16 PM 66.6 °F 57.4 °F 72% 29.80 in 10.0 mi SE 6.9 mph - N/A   Clear
3:36 PM 67.5 °F 57.9 °F 71% 29.79 in 10.0 mi SE 9.2 mph - N/A   Clear
3:55 PM 69.3 °F 58.8 °F 69% 29.77 in 10.0 mi SE 10.4 mph - N/A   Clear
4:16 PM 70.5 °F 59.0 °F 67% 29.74 in 10.0 mi SE 10.4 mph 17.3 mph N/A   Clear
4:36 PM 71.6 °F 59.4 °F 65% 29.73 in 10.0 mi SE 9.2 mph - N/A   Clear
4:55 PM 70.9 °F 59.7 °F 68% 29.71 in 10.0 mi SE 6.9 mph 18.4 mph N/A   Clear
5:15 PM 71.6 °F 60.3 °F 67% 29.73 in 10.0 mi SSE 5.8 mph - N/A   Clear
5:36 PM 72.5 °F 61.3 °F 68% 29.74 in 10.0 mi SE 3.5 mph - N/A   Clear
5:55 PM 72.7 °F 61.3 °F 67% 29.73 in 10.0 mi ESE 8.1 mph - N/A   Clear
6:15 PM 73.6 °F 61.9 °F 67% 29.74 in 10.0 mi ESE 5.8 mph - N/A   Clear
6:36 PM 74.1 °F 62.6 °F 67% 29.73 in 10.0 mi East 3.5 mph - N/A   Clear
6:55 PM 72.3 °F 62.6 °F 71% 29.74 in 10.0 mi East 4.6 mph - N/A   Clear
7:15 PM 72.5 °F 63.0 °F 72% 29.74 in 10.0 mi Calm Calm - N/A   Scattered Clouds
7:36 PM 72.0 °F 55.9 °F 57% 29.74 in 10.0 mi WSW 10.4 mph - N/A   Scattered Clouds
7:55 PM 69.8 °F 55.2 °F 60% 29.74 in 10.0 mi WSW 3.5 mph 9.2 mph N/A   Scattered Clouds
8:15 PM 69.8 °F 54.9 °F 59% 29.76 in 10.0 mi WSW 4.6 mph - N/A   Scattered Clouds
8:36 PM 68.7 °F 54.0 °F 59% 29.76 in 10.0 mi West 6.9 mph - N/A   Scattered Clouds
8:56 PM 67.3 °F 53.6 °F 61% 29.78 in 10.0 mi West 6.9 mph - N/A   Mostly Cloudy
9:15 PM 65.3 °F 53.8 °F 66% 29.78 in 10.0 mi West 4.6 mph - N/A   Scattered Clouds
9:35 PM 64.4 °F 54.5 °F 70% 29.78 in 10.0 mi WNW 3.5 mph - N/A   Mostly Cloudy
9:56 PM 63.7 °F 54.1 °F 71% 29.78 in 10.0 mi Calm Calm - N/A   Overcast
10:15 PM 63.0 °F 54.5 °F 74% 29.78 in 10.0 mi Calm Calm - N/A   Mostly Cloudy
10:36 PM 60.8 °F 54.5 °F 80% 29.79 in 10.0 mi Calm Calm - N/A   Scattered Clouds
10:56 PM 59.9 °F 54.7 °F 83% 29.79 in 10.0 mi Calm Calm - N/A   Mostly Cloudy
11:15 PM 60.1 °F 56.5 °F 88% 29.78 in 10.0 mi Calm Calm - N/A   Overcast
11:35 PM 60.8 °F 56.7 °F 86% 29.78 in 10.0 mi East 4.6 mph - N/A   Overcast
11:56 PM 61.5 °F 55.8 °F 81% 29.77 in 10.0 mi ESE 4.6 mph - N/A   Overcast